"Pseudo-MPEC" for P225jAY

Created 2025 Jan 21 16:31:18 UT using Find_Orb

Click here for an explanation of pseudo-MPECs

 
 Astrometry: 
     P225jAY* C2025 01 07.60448411 24 07.770+38 11 50.22   ~17NV 21.83wXNEOCPF52
     P225jAY  C2025 01 07.61552811 24 07.894+38 12 02.45   ~17NV 21.99wXNEOCPF52
     P225jAY  C2025 01 07.62656811 24 08.051+38 12 14.55   ~17NV 22.14wXNEOCPF52
     P225jAY  C2025 01 07.63753611 24 08.195+38 12 26.41   ~17NV 22.14wXNEOCPF52

Station data:
(F52) Pan-STARRS 2, Haleakala  (N20.707382 W156.255910)  US/Hawaii.
   Observers J. Bulger, T. Dukes, T. Lowe, A. Schultz, M. Willman. Measurers
   K. Chambers, S. Chastel, T. de Boer, L. Denneau, J. Fairlamb, H.
   Flewelling, M. Huber, C.-C. Lin, E. Magnier, Y. Ramanjooloo, R. Wainscoat,
   R. Weryk. 1.8-m Ritchey-Chrétien + CCD.

Orbital elements:  P225jAY
   Perihelion 2025 May 30.27247 +/- 189 TT =  6:32:21 (JD 2460825.77247)
Epoch 2025 Jan  8.0 TT = JDT 2460683.5   Earth MOID: 0.0605   Ve: 0.0724
M 293.87405845 +/- 60               Me: 0.0384   Ma: 0.0857      AutoNEOCP
n   0.46478381 +/- 0.398            Peri.  238.71744 +/- 80
a   1.65057546 +/- 0.941            Node    42.07637 +/- 60
e   0.7427827 +/- 0.263             Incl.   19.25687 +/- 19
P   2.121/774.539d         H 18.73  G  0.15   U 12.1  SR
q 0.42455655 +/- 1.02    Q 2.87659437 +/- 42.6            (J2000 ecliptic)
From 4 observations 2025 Jan. 7 (47.6 min); mean residual 0".08
Residuals in arcseconds: 
250107 F52  .09+  .06-    250107 F52  .02+  .07+    
250107 F52  .14-  .06+    250107 F52  .04+  .07-    

Ephemerides (geocentric):
Date (UTC) HH   RA             Dec           delta  r     elong  mag " sig PA
---- --------  ------------   ------------  ------ ------ -----  --- --------
2025 01 21 17  11 23 01.715   +43 17 28.21  1.0703 1.8943 134.4 21.3  40d  64
2025 01 21 18  11 23 00.448   +43 18 30.90  1.0697 1.8939 134.4 21.3  40d  64
2025 01 21 19  11 22 59.174   +43 19 33.64  1.0692 1.8936 134.5 21.3  40d  64
2025 01 21 20  11 22 57.892   +43 20 36.43  1.0686 1.8932 134.5 21.3  40d  64
2025 01 21 21  11 22 56.603   +43 21 39.26  1.0680 1.8929 134.5 21.3  40d  64
2025 01 21 22  11 22 55.306   +43 22 42.15  1.0675 1.8925 134.5 21.3  40d  64
2025 01 21 23  11 22 54.001   +43 23 45.08  1.0669 1.8922 134.6 21.3  40d  64
2025 01 22 00  11 22 52.689   +43 24 48.06  1.0664 1.8918 134.6 21.3  40d  64
2025 01 22 01  11 22 51.369   +43 25 51.09  1.0658 1.8915 134.6 21.3  40d  64
2025 01 22 02  11 22 50.041   +43 26 54.16  1.0652 1.8911 134.6 21.3  40d  64
2025 01 22 03  11 22 48.705   +43 27 57.28  1.0647 1.8907 134.6 21.3  40d  64
2025 01 22 04  11 22 47.362   +43 29 00.45  1.0641 1.8904 134.7 21.3  40d  64
2025 01 22 05  11 22 46.011   +43 30 03.67  1.0636 1.8900 134.7 21.3  40d  64
2025 01 22 06  11 22 44.652   +43 31 06.94  1.0630 1.8897 134.7 21.3  40d  64
2025 01 22 07  11 22 43.285   +43 32 10.25  1.0625 1.8893 134.7 21.3  40d  64
2025 01 22 08  11 22 41.911   +43 33 13.61  1.0619 1.8890 134.8 21.3  40d  64
2025 01 22 09  11 22 40.529   +43 34 17.02  1.0614 1.8886 134.8 21.3  40d  63
2025 01 22 10  11 22 39.139   +43 35 20.48  1.0608 1.8883 134.8 21.3  40d  63
2025 01 22 11  11 22 37.741   +43 36 23.98  1.0602 1.8879 134.8 21.3  40d  63
2025 01 22 12  11 22 36.335   +43 37 27.53  1.0597 1.8876 134.9 21.3  40d  63
2025 01 22 13  11 22 34.921   +43 38 31.13  1.0591 1.8872 134.9 21.3  40d  63
2025 01 22 14  11 22 33.500   +43 39 34.77  1.0586 1.8868 134.9 21.3  40d  63
2025 01 22 15  11 22 32.071   +43 40 38.47  1.0580 1.8865 134.9 21.3  41d  63
2025 01 22 16  11 22 30.633   +43 41 42.21  1.0575 1.8861 134.9 21.3  41d  64
2025 01 22 17  11 22 29.188   +43 42 45.99  1.0569 1.8858 135.0 21.3  41d  64
2025 01 22 18  11 22 27.735   +43 43 49.83  1.0564 1.8854 135.0 21.3  41d  64
2025 01 22 19  11 22 26.274   +43 44 53.71  1.0558 1.8851 135.0 21.3  41d  64
2025 01 22 20  11 22 24.805   +43 45 57.63  1.0553 1.8847 135.0 21.3  41d  64
2025 01 22 21  11 22 23.328   +43 47 01.61  1.0547 1.8843 135.1 21.3  41d  64
2025 01 22 22  11 22 21.843   +43 48 05.63  1.0542 1.8840 135.1 21.3  42d  64
2025 01 22 23  11 22 20.350   +43 49 09.70  1.0536 1.8836 135.1 21.3  42d  64
2025 01 23 00  11 22 18.849   +43 50 13.81  1.0531 1.8833 135.1 21.3  42d  64
2025 01 23 01  11 22 17.340   +43 51 17.98  1.0525 1.8829 135.1 21.3  42d  65
2025 01 23 02  11 22 15.823   +43 52 22.18  1.0520 1.8826 135.2 21.3  42d  65
2025 01 23 03  11 22 14.298   +43 53 26.44  1.0514 1.8822 135.2 21.3  42d  65
2025 01 23 04  11 22 12.764   +43 54 30.74  1.0509 1.8819 135.2 21.3  42d  65
2025 01 23 05  11 22 11.223   +43 55 35.09  1.0503 1.8815 135.2 21.3  42d  65
2025 01 23 06  11 22 09.674   +43 56 39.48  1.0498 1.8811 135.3 21.3  42d  65
2025 01 23 07  11 22 08.116   +43 57 43.93  1.0492 1.8808 135.3 21.3  42d  65
2025 01 23 08  11 22 06.551   +43 58 48.41  1.0487 1.8804 135.3 21.3  42d  65
2025 01 23 09  11 22 04.977   +43 59 52.95  1.0481 1.8801 135.3 21.3  42d  65
2025 01 23 10  11 22 03.395   +44 00 57.53  1.0476 1.8797 135.3 21.3  41d  65
2025 01 23 11  11 22 01.805   +44 02 02.15  1.0470 1.8794 135.4 21.3  41d  65
2025 01 23 12  11 22 00.207   +44 03 06.83  1.0465 1.8790 135.4 21.3  41d  65
2025 01 23 13  11 21 58.600   +44 04 11.54  1.0459 1.8786 135.4 21.3  40d  71
2025 01 23 14  11 21 56.985   +44 05 16.31  1.0454 1.8783 135.4 21.2  40d  71
2025 01 23 15  11 21 55.362   +44 06 21.12  1.0449 1.8779 135.5 21.2  40d  71
2025 01 23 16  11 21 53.731   +44 07 25.98  1.0443 1.8776 135.5 21.2  40d  71